Location: Dattensoll
(49.9928°N, 9.8954°E)
Time: 00:10:00
(UTC+00:00)

Cosmos 2084 Rocket - Pass Details

Date: 19 May 2025
Orbit: 542 x 579 km, 62.8° (Epoch: 15 June)

Event Time Altitude Azimuth Distance (km) Brightness Sun altitude
Rises 20:16:00 0° 191° (SSW) 2,779 6.6 -9.4°
Reaches altitude 10° 20:18:27 10° 180° (S) 1,882 5.6 -9.7°
Maximum altitude 20:22:05 28° 121° (ESE) 1,094 4.3 -10.1°
Drops below altitude 10° 20:25:43 10° 62° (ENE) 1,879 5.9 -10.5°
Sets 20:28:09 0° 51° (NE) 2,775 6.9 -10.7°
